[[{"header":{"parameterUnit":"m.s-1","parameterCategory":1,"la1":30.2991,"la2":30.254,"lo1":-89.0895,"lo2":-89.0444,"dy":0.0017,"dx":0.0017,"nx":28,"ny":28,"refTime":"2025-06-06T09:00:00:Z","depth":0,"parameterNumber":2,"parameterNumberName":"U-component_of_WINDS"},"data":[0,0,0,0,0,0,0,0,0,0,0,0,0,0,0,0,0,0,0,0,0,0,0,0,0,0,0,0,0,0,0,0,0,0,0,0,0,0,0,0,0,0,0,0,0,0,0,0,0,0,0,0,0,0,0,0,0,0,0.1641,0.1642,0,0.1776,0.1778,0.1779,0.1877,0.1878,0.1879,0.188,0.2022,0.2024,0.2027,0,0,0,0,0,0,0,0,0,0,0,0,0,0.1469,0.1472,0.164,0.1642,0.1644,0.1776,0.1778,0.178,0.1877,0.1878,0.1879,0.188,0.2021,0.2024,0.2028,0,0,0,0,0,0,0,0,0,0,0,0,0,0.1568,0.1473,0.164,0.1708,0.1716,0.1776,0.1778,0.178,0.1877,0.1878,0.1879,0.188,0.2019,0.2024,0.2028,0.2032,0,0,0.2042,0.2044,0,0,0,0,0,0,0,0,0.1562,0.1574,0.1697,0.1704,0.1712,0.1811,0.177,0.1865,0.1877,0.1816,0.188,0.1881,0.1951,0.1961,0.1984,0.2039,0.2045,0.2043,0.2045,0.2047,0.2048,0,0,0,0,0,0,0,0.1555,0.1569,0.1694,0.1698,0.1708,0.1733,0.1749,0.1788,0.1875,0.1821,0.1829,0.1843,0.1955,0.1979,0.1988,0.2047,0.2042,0.2046,0.2049,0.2051,0.2114,0.2113,0,0,0,0,0,0,0.1538,0.1563,0.169,0.1698,0.1639,0.1735,0.1753,0.1778,0.1875,0.1891,0.1842,0.1847,0.1971,0.1982,0.1993,0.2006,0.2047,0.2051,0.2054,0.2115,0.2114,0.2113,0,0,0,0,0,0,0.1533,0.1548,0.1685,0.1633,0.1652,0.1737,0.1765,0.178,0.1804,0.189,0.1907,0.185,0.1972,0.1987,0.2022,0.2012,0.2053,0.2058,0.2116,0.2115,0.2113,0.2029,0,0,0,0,0,0,0.1528,0.1546,0.1547,0.1632,0.1654,0.1709,0.1764,0.1782,0.1811,0.182,0.1903,0.1918,0.1974,0.2015,0.2026,0.2019,0.2061,0.2118,0.2116,0.2114,0.2033,0.2024,0.2017,0,0,0,0,0,0.1522,0.1518,0.1547,0.1561,0.1658,0.1709,0.1722,0.1786,0.181,0.1813,0.1869,0.1915,0.2011,0.2017,0.2032,0.2025,0.2119,0.2116,0.2114,0.2036,0.2026,0.2017,0,0,0,0,0,0,0.143,0.153,0.1563,0.1587,0.1638,0.1725,0.173,0.1773,0.182,0.1825,0.1905,0.1923,0.195,0.1991,0.1997,0.2035,0.2071,0.2071,0.2007,0.1998,0.199,0.198,0.2065,0,0,0,0,0,0.1413,0.1445,0.1531,0.1544,0.1568,0.1644,0.1669,0.1714,0.1771,0.1794,0.1852,0.1907,0.195,0.1976,0.202,0.2039,0.206,0.2042,0.2034,0.2027,0.2027,0.2042,0.2035,0.2105,0.2105,0.2105,0,0,0.1377,0.1436,0.1451,0.1527,0.1572,0.1605,0.1662,0.1694,0.1719,0.1799,0.1836,0.188,0.1947,0.1974,0.1989,0.201,0.2012,0.2024,0.2018,0.2022,0.2039,0.2032,0.2026,0.2103,0.2104,0.2104,0,0,0.1329,0.1376,0.1392,0.1437,0.1505,0.1556,0.1559,0.164,0.1673,0.1711,0.1772,0.1804,0.1875,0.192,0.1953,0.1923,0.1968,0.1935,0.1895,0.1908,0.1903,0.1899,0.1889,0.1885,0.1934,0.1934,0.1934,0,0.1276,0.1327,0.1395,0.1424,0.1456,0.1529,0.1548,0.1588,0.1666,0.1688,0.1709,0.1801,0.1851,0.1891,0.1883,0.1907,0.1915,0.1926,0.1898,0.1894,0.1891,0.1883,0.1879,0.193,0.193,0.1931,0.1931,0,0.126,0.1294,0.1299,0.1373,0.1406,0.1429,0.1502,0.1527,0.157,0.162,0.1658,0.1721,0.1779,0.1792,0.1834,0.1838,0.1849,0.1883,0.1921,0.1879,0.1873,0.187,0.1924,0.1925,0.1927,0.1928,0,0,0.1157,0.1269,0.127,0.1305,0.1386,0.1415,0.1442,0.1499,0.1519,0.1572,0.1598,0.1657,0.1689,0.1726,0.1774,0.1786,0.176,0.1819,0.1822,0.1807,0.177,0.1744,0.1739,0.179,0.179,0.179,0.1765,0,0.1122,0.1174,0.1237,0.1268,0.1301,0.1372,0.1396,0.1449,0.1496,0.1533,0.1586,0.1627,0.1666,0.1688,0.1703,0.176,0.1754,0.1763,0.1816,0.1817,0.1798,0.1736,0.1709,0.1682,0.1763,0.1762,0.1762,0,0.1087,0.1136,0.117,0.125,0.1266,0.1286,0.1344,0.1378,0.144,0.1474,0.1515,0.1567,0.1601,0.1633,0.1682,0.1687,0.1713,0.1744,0.1745,0.1753,0.1787,0.1743,0.1675,0.1671,0.1759,0.1759,0.1759,0,0.101,0.1084,0.1115,0.1143,0.1236,0.1249,0.1288,0.1352,0.1382,0.1433,0.1454,0.1508,0.1538,0.158,0.1646,0.1663,0.1688,0.1726,0.1718,0.1716,0.172,0.1719,0.1656,0.1735,0.1735,0.1735,0.1735,0,0.0965,0.0983,0.1081,0.11,0.1123,0.1197,0.1218,0.1264,0.132,0.135,0.1415,0.1442,0.1527,0.1564,0.1616,0.1649,0.1662,0.1691,0.1705,0.1686,0.1682,0.1704,0.1708,0.1734,0.1735,0.1735,0.1735,0,0.0882,0.0949,0.0987,0.1072,0.1094,0.1108,0.1182,0.1203,0.1255,0.1292,0.1305,0.1386,0.1433,0.1503,0.1571,0.1607,0.1632,0.1654,0.1611,0.1619,0.1607,0.1608,0.1557,0.1555,0.1634,0.1633,0.1632,0,0.0849,0.0865,0.0952,0.0977,0.1014,0.1053,0.1084,0.1158,0.1188,0.1261,0.1274,0.1327,0.1373,0.1446,0.1511,0.1564,0.1589,0.1567,0.1597,0.1578,0.1589,0.1588,0.159,0.156,0.1559,0.1558,0.1557,0,0.0783,0.0816,0.0858,0.0913,0.0949,0.0996,0.1046,0.1062,0.1147,0.1178,0.1227,0.1263,0.1333,0.1385,0.1447,0.149,0.1538,0.1547,0.1548,0.1529,0.1504,0.1518,0.1592,0.1548,0.1549,0.1549,0.155,0.155,0.0725,0.0743,0.0808,0.0854,0.0899,0.0945,0.097,0.1024,0.1066,0.1129,0.117,0.1217,0.1281,0.137,0.141,0.1449,0.1469,0.147,0.1471,0.147,0.1464,0.1497,0.1461,0.1461,0.1461,0.1462,0.1462,0,0.0664,0.0709,0.0751,0.0819,0.0855,0.0897,0.0955,0.0983,0.1023,0.1079,0.1123,0.118,0.1231,0.1301,0.1357,0.1375,0.1398,0.1387,0.1387,0.1396,0.1442,0.1436,0.1367,0.1367,0.1367,0.1367,0.1367,0.1367,0.0636,0.0669,0.0709,0.0766,0.0812,0.0859,0.0888,0.0931,0.0976,0.1037,0.1079,0.1124,0.1186,0.1248,0.1297,0.1316,0.1334,0.1316,0.1342,0.1384,0.1393,0.1401,0.1396,0.1319,0.1319,0.1294,0.1293,0.1293]},{"header":{"parameterUnit":"m.s-1","parameterCategory":1,"la1":30.2991,"la2":30.254,"lo1":-89.0895,"lo2":-89.0444,"dy":0.0017,"dx":0.0017,"nx":28,"ny":28,"refTime":"2025-06-06T09:00:00:Z","depth":0,"parameterNumber":3,"parameterNumberName":"V-component_of_WINDS"},"data":[0,0,0,0,0,0,0,0,0,0,0,0,0,0,0,0,0,0,0,0,0,0,0,0,0,0,0,0,0,0,0,0,0,0,0,0,0,0,0,0,0,0,0,0,0,0,0,0,0,0,0,0,0,0,0,0,0,0,4.5661,4.566,0,4.5599,4.5598,4.5597,4.5564,4.5564,4.5564,4.5564,4.5494,4.5492,4.549,0,0,0,0,0,0,0,0,0,0,0,0,0,4.5745,4.5744,4.5661,4.566,4.5659,4.5599,4.5598,4.5597,4.5564,4.5564,4.5564,4.5564,4.5494,4.5492,4.549,0,0,0,0,0,0,0,0,0,0,0,0,0,4.5698,4.5743,4.5661,4.5636,4.5633,4.5599,4.5598,4.5597,4.5564,4.5564,4.5564,4.5564,4.5495,4.5492,4.549,4.5474,0,0,4.5481,4.548,0,0,0,0,0,0,0,0,4.5701,4.5695,4.564,4.5637,4.5634,4.5589,4.5602,4.5555,4.5564,4.559,4.5564,4.5564,4.5525,4.552,4.5508,4.5471,4.5468,4.5481,4.5479,4.5478,4.5478,0,0,0,0,0,0,0,4.5704,4.5697,4.5636,4.5639,4.5636,4.5625,4.5619,4.5593,4.5558,4.5588,4.5585,4.5579,4.5523,4.5511,4.5506,4.5467,4.5481,4.5479,4.5477,4.5476,4.5414,4.5414,0,0,0,0,0,0,4.5712,4.57,4.5638,4.5634,4.5668,4.5624,4.5617,4.5603,4.5559,4.5552,4.5579,4.5577,4.5516,4.551,4.5504,4.5483,4.5478,4.5476,4.5474,4.5414,4.5414,4.5414,0,0,0,0,0,0,4.5714,4.5707,4.564,4.5667,4.5657,4.5623,4.5608,4.5602,4.559,4.5552,4.5545,4.5573,4.5515,4.5508,4.5482,4.548,4.5475,4.5472,4.5414,4.5414,4.5414,4.5442,0,0,0,0,0,0,4.5717,4.5708,4.5703,4.5667,4.5656,4.5622,4.5608,4.5601,4.5586,4.5584,4.5545,4.5538,4.5515,4.5487,4.548,4.5476,4.547,4.5414,4.5414,4.5414,4.5441,4.5443,4.5445,0,0,0,0,0,4.572,4.5711,4.5703,4.5695,4.5649,4.5622,4.5616,4.5591,4.5586,4.558,4.5556,4.5539,4.5482,4.5485,4.5476,4.5472,4.5414,4.5414,4.5414,4.544,4.5443,4.5445,0,0,0,0,0,0,4.5745,4.5706,4.5696,4.5676,4.5653,4.5616,4.5608,4.5594,4.557,4.5568,4.5536,4.5528,4.5506,4.5486,4.549,4.5455,4.5446,4.5445,4.5469,4.5471,4.5472,4.5477,4.5468,0,0,0,0,0,4.5749,4.5732,4.5698,4.5683,4.5673,4.5643,4.5629,4.5613,4.5587,4.5576,4.555,4.5523,4.5499,4.5484,4.5459,4.5438,4.5429,4.5431,4.5433,4.5435,4.5433,4.5421,4.5422,4.5414,4.5414,4.5414,0,0,4.5756,4.5732,4.5723,4.5688,4.5668,4.565,4.5634,4.5615,4.56,4.5572,4.5548,4.5528,4.5496,4.5473,4.5461,4.5456,4.5434,4.5435,4.5436,4.5434,4.5421,4.5422,4.5423,4.5414,4.5414,4.5414,0,0,4.5759,4.574,4.5726,4.5707,4.5678,4.5659,4.5655,4.5621,4.5608,4.5583,4.5562,4.5543,4.5502,4.5481,4.5465,4.5461,4.5445,4.5454,4.5463,4.5451,4.5452,4.5452,4.5451,4.5451,4.5453,4.5453,4.5453,0,4.577,4.5744,4.572,4.5703,4.5688,4.5665,4.565,4.5632,4.5595,4.5585,4.558,4.5529,4.5506,4.5478,4.5477,4.5465,4.5459,4.5458,4.5454,4.5454,4.5454,4.5452,4.5452,4.5454,4.5454,4.5454,4.5454,0,4.5759,4.5741,4.5733,4.5702,4.5686,4.567,4.5643,4.5629,4.5614,4.5595,4.557,4.5541,4.5511,4.5503,4.5487,4.5473,4.5471,4.546,4.5451,4.5456,4.5455,4.5454,4.5456,4.5456,4.5455,4.5455,0,0,4.5776,4.5733,4.5731,4.5717,4.5684,4.5668,4.5651,4.5624,4.5613,4.5588,4.5573,4.554,4.553,4.5512,4.5493,4.5483,4.5483,4.5473,4.5472,4.5476,4.5466,4.5474,4.5474,4.5472,4.5472,4.5472,4.5468,0,4.5774,4.5745,4.5724,4.5701,4.5684,4.5662,4.5646,4.5624,4.5605,4.5586,4.5564,4.5542,4.5531,4.552,4.5509,4.5485,4.548,4.5485,4.5455,4.5455,4.5465,4.5473,4.5481,4.548,4.5467,4.5467,4.5467,0,4.5768,4.5748,4.5725,4.5695,4.5687,4.5674,4.5648,4.5631,4.5604,4.5591,4.5572,4.5553,4.5533,4.5526,4.5496,4.55,4.5487,4.5473,4.5472,4.5468,4.5461,4.5469,4.5478,4.5478,4.5466,4.5466,4.5466,0,4.5783,4.5749,4.5731,4.572,4.5684,4.5676,4.566,4.5634,4.5619,4.5596,4.5586,4.556,4.5546,4.5525,4.55,4.5497,4.5473,4.5463,4.546,4.5461,4.5456,4.5457,4.5463,4.5448,4.5448,4.5448,4.5448,0,4.5783,4.577,4.5738,4.5727,4.5711,4.5687,4.5671,4.5653,4.563,4.5614,4.5592,4.5577,4.5545,4.5525,4.5505,4.5484,4.5477,4.5465,4.546,4.5467,4.5469,4.5458,4.5457,4.5447,4.5448,4.5448,4.5448,0,4.5797,4.5775,4.5754,4.5723,4.5715,4.5705,4.5677,4.5665,4.5646,4.5626,4.562,4.5589,4.5565,4.5538,4.5504,4.5491,4.5471,4.5463,4.5481,4.5478,4.5477,4.5477,4.5477,4.5475,4.5461,4.5461,4.5461,0,4.5798,4.5788,4.5757,4.5746,4.5732,4.5714,4.57,4.5675,4.5662,4.5632,4.5623,4.5598,4.5577,4.5539,4.5513,4.5487,4.5478,4.548,4.5474,4.5482,4.5479,4.548,4.5478,4.5481,4.5482,4.5482,4.5482,0,4.5804,4.5794,4.5776,4.5755,4.5739,4.5721,4.5701,4.5692,4.5663,4.5648,4.5626,4.5609,4.5577,4.5552,4.5523,4.5505,4.5488,4.5485,4.5482,4.549,4.5501,4.5495,4.5486,4.5484,4.5484,4.5484,4.5484,4.5484,4.5811,4.5801,4.5779,4.576,4.5743,4.5725,4.5713,4.5693,4.5675,4.5648,4.5634,4.5611,4.5585,4.5545,4.5528,4.5508,4.5502,4.5499,4.5499,4.5498,4.5501,4.5504,4.5503,4.5502,4.5502,4.5502,4.5502,0,4.5815,4.58,4.5783,4.5758,4.5743,4.5731,4.5709,4.5697,4.5678,4.5656,4.5637,4.561,4.5587,4.5559,4.5533,4.5523,4.5515,4.5517,4.5517,4.5513,4.5507,4.5512,4.5524,4.5524,4.5524,4.5524,4.5524,4.5524,4.5816,4.58,4.5787,4.5762,4.5746,4.5726,4.5714,4.5697,4.568,4.5653,4.5634,4.5617,4.5593,4.5566,4.5543,4.5535,4.5527,4.5531,4.5521,4.5516,4.5514,4.5512,4.5516,4.553,4.553,4.553,4.553,4.553]}]]